This is the latest recevied weather packets stored in our database for station/object KD7CIH. If no packets are shown the sender has not sent any weather packets the latest 10 day(s).
| Time | Temp. | Humidity | Pressure | Rain* | Wind** | Luminosity | Snow |
|---|---|---|---|---|---|---|---|
| 1787554085 | 17.78° C | 59% | 1021.6 hPa | 0.51 mm | - | - | - |
| 1787553785 | 17.78° C | 57% | 1021.8 hPa | 0.51 mm | - | - | - |
| 1787553613 | 18.33° C | 55% | 1021.9 hPa | 0.25 mm | - | - | - |
| 1787553185 | 18.33° C | 54% | 1021.9 hPa | 0.25 mm | - | - | - |
| 1787552885 | 18.33° C | 54% | 1021.9 hPa | 0.25 mm | - | - | - |
| 1787552716 | 18.89° C | 53% | 1021.9 hPa | 0.25 mm | - | - | - |
| 1787552286 | 18.33° C | 52% | 1021.8 hPa | 0.25 mm | - | - | - |
| 1787551985 | 16.67° C | 62% | 1021.6 hPa | 0.25 mm | - | - | - |
| 1787551685 | 16.67° C | 68% | 1021.6 hPa | 0.25 mm | - | - | - |
| 1787551387 | 16.67° C | 66% | 1021.6 hPa | 0.25 mm | - | - | - |
| 1787551086 | 16.67° C | 63% | 1021 hPa | 0.25 mm | - | - | - |
| 1787550786 | 17.22° C | 62% | 1020.7 hPa | 0 mm | - | - | - |
| 1787550485 | 17.22° C | 60% | 1020.7 hPa | 0 mm | - | - | - |
| 1787550187 | 17.22° C | 60% | 1020.4 hPa | 0 mm | - | - | - |
| 1787550012 | 17.22° C | 59% | 1020.2 hPa | 0 mm | - | - | - |
| 1787549713 | 17.78° C | 58% | 1020 hPa | 0 mm | - | - | - |
| 1787549286 | 18.33° C | 55% | 1020.1 hPa | 0 mm | - | - | - |
| 1787548985 | 18.33° C | 49% | 1019.8 hPa | 0 mm | - | - | - |
| 1787548812 | 18.33° C | 50% | 1019.6 hPa | 0 mm | - | - | - |
| 1787548386 | 18.33° C | 51% | 1019.6 hPa | 0 mm | - | - | - |
| 1787548212 | 18.33° C | 51% | 1019.6 hPa | 0 mm | - | - | - |
| 1787547785 | 18.33° C | 51% | 1019.8 hPa | 0 mm | - | - | - |
| 1787547486 | 18.33° C | 51% | 1020 hPa | 0 mm | - | - | - |
| 1787547187 | 18.33° C | 51% | 1019.8 hPa | 0 mm | - | - | - |
| 1787546885 | 18.33° C | 51% | 1019.8 hPa | 0 mm | - | - | - |
* Rain latest hour (hover to see other rain measurements)
** Current wind speed in m/s (hover to see current wind gust speed)